Alamosa, CO (81101)

8:11 PM MDT on August 03, 2015 (GMT -0600)
Phillips 66 | | Change Station
CLOSE
Current Station
Personal Weather Station
Location: Alamosa, CO
Elevation: 7539 ft
Nearby Weather Stations

Elev 7539 ft 37.46 °N, 105.86 °W | Updated 1 minute ago

Clear
Clear
64.7 °F
Feels Like 64.7 °F
N
6.0
Wind Variable Wind from WSW
Gusts 6.0 mph

Today
High -- | Low -- °F
--% Chance of Precip.
Yesterday
High -- | Low -- °F
Precip. -- in
6:09 AM 8:09 PM
Waning Gibbous, 82% visible
Pressure 29.98 in
Visibility 10.0 miles
Clouds Clear
Dew Point 51 °F
Humidity 62%
Rainfall 0.09 in
Snow Depth Not available.
UV 0 out of 12
Pollen 6.80 out of 12
Air Quality Not available.
Flu Activity Not available.
METAR KALS 040152Z AUTO 25006KT 10SM CLR 18/10 A3023 RMK AO2 RAE0056 SLP151 P0000 T01830100

More Conditions Fewer Conditions

Pressure 29.98 in
Visibility 10.0 miles
Clouds Clear
Dew Point 51 °F
Humidity 62%
Rainfall 0.09 in
Snow Depth Not available.
UV 0 out of 12
Pollen 6.80 out of 12
Air Quality Not available.
Flu Activity Not available.
METAR KALS 040152Z AUTO 25006KT 10SM CLR 18/10 A3023 RMK AO2 RAE0056 SLP151 P0000 T01830100

More Conditions Fewer Conditions

10-Day Weather Forecast

×

Almanac

Astronomy

Aug. 03, 2015 Rise Set
Actual Time
Civil Twilight
Nautical Twilight
Astronomical Twilight
Moon
Length of Visible Light
Length of Day
Tomorrow will be .
, % of the Moon is Illuminated

Today's Extremes

State Highs State Lows

Community

WunderPhotos

Upload Photos

1,843,831 photos uploaded!

WunderBlogs® & News

Nearby

Air Quality

  Air Quality AQ Index Pollutant
Not available.

Snow Depth

Station Depth Elevation

Earthquake Activity

City Distance Mag. Time & Date
Minimum magnitude displayed is 2.5.

Coastal Water Temperatures

Place Temperature

Stations

Nearby Weather Stations

Station Location Temp. Windchill Dew Point Humidity Wind Precip. Elev Updated Type